YB2NDX-15 Weather Reports


time (UTC)temp
C
wind
direction
speed
KPH
gust
KPH
rain 1hr
cm
rain 24hr
cm
rain mn
cm
humidity
%
barometer
mb
20260509202007 26 0.0 0.0 0.00 0.00 0.00 1007.6
20260509201001 26 0.0 0.0 0.00 0.00 0.00 1007.6
20260509195954 26 0.0 0.0 0.00 0.00 0.00 1007.8
20260509194948 26 0.0 0.0 0.00 0.00 0.00 1007.8
20260509193942 26 0.0 0.0 0.00 0.00 0.00 1007.8
20260509192935 26 0.0 0.0 0.00 0.00 0.00 1007.9
20260509191929 26 0.0 0.0 0.00 0.00 0.00 1008.0
20260509190923 26 0.0 0.0 0.00 0.00 0.00 1007.9
20260509184910 26 0.0 0.0 0.00 0.00 0.00 1008.1
20260509183903 26 0.0 0.0 0.00 0.00 0.00 1008.2
20260509182857 26 0.0 0.0 0.00 0.00 0.00 1008.4
20260509181851 26 0.0 0.0 0.00 0.00 0.00 1008.5
20260509180844 26 0.0 0.0 0.00 0.00 0.00 1008.5
20260509175838 26 0.0 0.0 0.00 0.00 0.00 1008.7
20260509174831 26 0.0 0.0 0.00 0.00 0.00 1008.9
20260509173825 26 0.0 0.0 0.00 0.00 0.00 1009.0
20260509172819 26 0.0 0.0 0.00 0.00 0.00 1009.2
20260509171812 26 0.0 0.0 0.00 0.00 0.00 1009.2
20260509170806 26 0.0 0.0 0.00 0.00 0.00 1009.3
20260509165800 26 0.0 0.0 0.00 0.00 0.00 1009.3
20260509163747 26 0.0 0.0 0.00 0.00 0.00 1009.4
20260509162741 26 0.0 0.0 0.00 0.00 0.00 1009.5
20260509161734 26 0.0 0.0 0.00 0.00 0.00 1009.6
20260509160728 26 0.0 0.0 0.00 0.00 0.00 1009.7
20260509155722 26 0.0 0.0 0.00 0.00 0.00 1009.6
20260509154716 26 0.0 0.0 0.00 0.00 0.00 1009.7
20260509153710 26 0.0 0.0 0.00 0.00 0.00 1009.7
20260509151657 27 0.0 0.0 0.00 0.00 0.00 1009.6
20260509150651 27 0.0 0.0 0.00 0.00 0.00 1009.6
20260509145644 27 0.0 0.0 0.00 0.00 0.00 1009.6
20260509144638 27 0.0 0.0 0.00 0.00 0.00 1009.4
20260509143632 27 0.0 0.0 0.00 0.00 0.00 1009.2
20260509142626 27 0.0 0.0 0.00 0.00 0.00 1009.2
20260509141619 27 0.0 0.0 0.00 0.00 0.00 1009.1
20260509140613 27 0.0 0.0 0.00 0.00 0.00 1009.1
20260509134600 27 0.0 0.0 0.00 0.00 0.00 1009.0
20260509133553 27 0.0 0.0 0.00 0.00 0.00 1009.0
20260509132547 27 0.0 0.0 0.00 0.00 0.00 1009.0
20260509131541 27 0.0 0.0 0.00 0.00 0.00 1009.0
20260509130536 28 0.0 0.0 0.00 0.00 0.00 1008.8
20260509125529 28 0.0 0.0 0.00 0.00 0.00 1008.6
20260509124522 28 0.0 0.0 0.00 0.00 0.00 1008.5
20260509123516 28 0.0 0.0 0.00 0.00 0.00 1008.3
20260509122509 28 0.0 0.0 0.00 0.00 0.00 1008.2
20260509121503 28 0.0 0.0 0.00 0.00 0.00 1008.0
20260509120457 28 0.0 0.0 0.00 0.00 0.00 1008.0
20260509115451 28 0.0 0.0 0.00 0.00 0.00 1008.0
20260509114444 28 0.0 0.0 0.00 0.00 0.00 1007.8
20260509113437 28 0.0 0.0 0.00 0.00 0.00 1007.7
20260509112431 28 0.0 0.0 0.00 0.00 0.00 1007.4
20260509111425 28 0.0 0.0 0.00 0.00 0.00 1007.2
20260509105413 28 0.0 0.0 0.00 0.00 0.00 1007.1
20260509104407 28 0.0 0.0 0.00 0.00 0.00 1007.0
20260509103401 28 0.0 0.0 0.00 0.00 0.00 1006.8
20260509102354 28 0.0 0.0 0.00 0.00 0.00 1006.6
20260509101348 27 0.0 0.0 0.00 0.00 0.00 1006.6
20260509100341 27 0.0 0.0 0.00 0.00 0.00 1006.7
20260509095335 27 0.0 0.0 0.00 0.00 0.00 1006.6
20260509094328 30 0.0 0.0 0.00 0.00 0.00 1006.5
20260509093322 32 0.0 0.0 0.00 0.00 0.00 1006.1
20260509091309 34 0.0 0.0 0.00 0.00 0.00 1006.0
20260509090302 34 0.0 0.0 0.00 0.00 0.00 1005.9
20260509085256 34 0.0 0.0 0.00 0.00 0.00 1006.0
20260509084250 35 0.0 0.0 0.00 0.00 0.00 1005.9
20260509083243 35 0.0 0.0 0.00 0.00 0.00 1005.7
20260509082237 38 0.0 0.0 0.00 0.00 0.00 1006.2
20260509081231 39 0.0 0.0 0.00 0.00 0.00 1006.3
20260509080222 37 0.0 0.0 0.00 0.00 0.00 1006.2
20260509075216 34 0.0 0.0 0.00 0.00 0.00 1005.8
20260509074210 33 0.0 0.0 0.00 0.00 0.00 1005.8
20260509073203 33 0.0 0.0 0.00 0.00 0.00 1005.7
20260509072157 33 0.0 0.0 0.00 0.00 0.00 1005.8
20260509071151 33 0.0 0.0 0.00 0.00 0.00 1005.9
20260509070145 33 0.0 0.0 0.00 0.00 0.00 1006.0
20260509065138 33 0.0 0.0 0.00 0.00 0.00 1006.1
20260509064132 33 0.0 0.0 0.00 0.00 0.00 1006.1
20260509063125 32 0.0 0.0 0.00 0.00 0.00 1006.2
20260509060107 32 0.0 0.0 0.00 0.00 0.00 1006.4
20260509055100 32 0.0 0.0 0.00 0.00 0.00 1006.6
20260509054054 32 0.0 0.0 0.00 0.00 0.00 1006.5
20260509053048 32 0.0 0.0 0.00 0.00 0.00 1006.7
20260509052041 33 0.0 0.0 0.00 0.00 0.00 1006.7
20260509051035 34 0.0 0.0 0.00 0.00 0.00 1006.8
20260509045021 35 0.0 0.0 0.00 0.00 0.00 1007.0
20260509044015 35 0.0 0.0 0.00 0.00 0.00 1007.1
20260509043009 33 0.0 0.0 0.00 0.00 0.00 1007.2
20260509042001 35 0.0 0.0 0.00 0.00 0.00 1007.4
20260509040955 35 0.0 0.0 0.00 0.00 0.00 1007.5
20260509035948 34 0.0 0.0 0.00 0.00 0.00 1007.6
20260509034941 34 0.0 0.0 0.00 0.00 0.00 1007.8
20260509033935 34 0.0 0.0 0.00 0.00 0.00 1008.0
20260509032928 34 0.0 0.0 0.00 0.00 0.00 1008.1
20260509031922 34 0.0 0.0 0.00 0.00 0.00 1008.2
20260509025909 33 0.0 0.0 0.00 0.00 0.00 1008.6
20260509024903 33 0.0 0.0 0.00 0.00 0.00 1008.6
20260509022850 33 0.0 0.0 0.00 0.00 0.00 1008.8
20260509021843 33 0.0 0.0 0.00 0.00 0.00 1009.0
20260509020837 33 0.0 0.0 0.00 0.00 0.00 1008.9
20260509015830 32 0.0 0.0 0.00 0.00 0.00 1009.1
20260509013817 32 0.0 0.0 0.00 0.00 0.00 1009.1
20260509012811 31 0.0 0.0 0.00 0.00 0.00 1009.2
20260509011804 31 0.0 0.0 0.00 0.00 0.00 1009.2
20260509010757 30 0.0 0.0 0.00 0.00 0.00 1009.2
20260509005751 30 0.0 0.0 0.00 0.00 0.00 1009.1
20260509004745 30 0.0 0.0 0.00 0.00 0.00 1009.1
20260509003738 29 0.0 0.0 0.00 0.00 0.00 1009.1
20260509001715 28 0.0 0.0 0.00 0.00 0.00 1009.0
20260509000708 28 0.0 0.0 0.00 0.00 0.00 1009.1
20260508235702 28 0.0 0.0 0.00 0.00 0.00 1009.1
20260508234655 28 0.0 0.0 0.00 0.00 0.00 1009.1
20260508233649 27 0.0 0.0 0.00 0.00 0.00 1009.1
20260508232643 27 0.0 0.0 0.00 0.00 0.00 1009.0
20260508231637 27 0.0 0.0 0.00 0.00 0.00 1009.0
20260508230630 26 0.0 0.0 0.00 0.00 0.00 1008.9
20260508225624 26 0.0 0.0 0.00 0.00 0.00 1008.8
20260508223611 26 0.0 0.0 0.00 0.00 0.00 1008.5
20260508222605 26 0.0 0.0 0.00 0.00 0.00 1008.3
20260508221558 26 0.0 0.0 0.00 0.00 0.00 1008.1
20260508220552 27 0.0 0.0 0.00 0.00 0.00 1008.0
20260508215546 27 0.0 0.0 0.00 0.00 0.00 1008.0
20260508214540 27 0.0 0.0 0.00 0.00 0.00 1008.0
20260508213533 27 0.0 0.0 0.00 0.00 0.00 1007.9
20260508212527 27 0.0 0.0 0.00 0.00 0.00 1007.9
20260508211520 27 0.0 0.0 0.00 0.00 0.00 1007.9
20260508210514 27 0.0 0.0 0.00 0.00 0.00 1007.8
20260508205508 27 0.0 0.0 0.00 0.00 0.00 1007.6
20260508204501 27 0.0 0.0 0.00 0.00 0.00 1007.6
20260508202449 27 0.0 0.0 0.00 0.00 0.00 1007.7